XW-2E
1 40909U 15049L 20142.91578911 .00000805 00000-0 42348-4 0 9999
2 40909 97.4640 147.7964 0015155 94.1144 329.8050 15.18389989258500
XW-2F
1 40910U 15049M 20142.77894676 .00000864 00000-0 45818-4 0 9994
2 40910 97.4679 146.7597 0016383 92.8520 260.5942 15.17899916258283
XW-2B
1 40911U 15049N 20142.77518366 .00000313 00000-0 19607-4 0 9990
2 40911 97.4761 144.9163 0015703 102.8565 69.5193 15.16202233258128
DCBB
1 40912U 15049P 20142.76049572 .00000777 00000-0 38880-4 0 9996
2 40912 97.4488 150.8633 0016459 74.0369 340.2064 15.20286180258667
TW-1C
1 40926U 15051B 20142.85042999 .00017342 00000-0 17858-3 0 9997
2 40926 97.0867 194.4658 0006785 169.5562 306.6887 15.64881594262860
TW-1A
1 40928U 15051D 20142.87619419 .00002155 00000-0 51607-4 0 9995
2 40928 97.1114 171.3540 0008647 286.8887 197.1306 15.42486819261274
IO-86
1 40931U 15052B 20140.64378432 .00000712 00000-0 10094-4 0 9992
2 40931 5.9930 180.8621 0013303 233.8425 126.0740 14.76635679250997
LQSat
1 40958U 15057A 20142.76351878 .00000005 00000-0 82907-5 0 9994
2 40958 097.8542 207.0041 0016976 232.9321 127.0336 14.73119173248584
ATHENOXAT-1
1 41168U 15077C 20142.69206251 .00001551 00000-0 45395-4 0 9992
2 41168 14.9880 257.7675 0011290 115.4671 244.6819 15.14336274245280
ChubuSat-2
1 41338U 16012B 20142.49007808 .00000246 00000-0 12292-4 0 9996
2 41338 31.0020 157.8104 0013763 209.6199 150.3657 15.00287629233688
ChubuSat-3
1 41339U 16012C 20142.42115211 .00000209 00000-0 94100-5 0 9996
2 41339 31.0111 155.9175 0013518 217.7373 142.2317 15.00452747233676
Horyu-4
1 41340U 16012D 20142.70824982 .00000334 00000-0 18462-4 0 9996
2 41340 031.0040 142.1061 0013930 243.2130 116.7081 15.01488286233856
OUFTI-1
1 41458U 16025C 20142.85383155 .00000973 00000-0 53034-4 0 9991
2 41458 098.1023 252.0259 0162385 299.5277 058.9841 15.06788541223476
e-st@r-II
1 41459U 16025D 20142.89178122 .00000803 00000-0 44952-4 0 9993
2 41459 098.1004 251.5006 0163655 301.2665 057.2612 15.06360077223448
AAUSAT4
1 41460U 16025E 20142.87026116 .00000488 00000-0 28406-4 0 9993
2 41460 098.0947 253.7125 0152638 290.5188 067.9694 15.08626054223631
LO-87
1 41557U 16033B 20142.85679216 .00000993 00000-0 39055-4 0 9995
2 41557 097.4026 233.2550 0013675 175.0649 185.0728 15.27967046221717
NuSat2
1 41558U 16033C 20142.85664747 .00001089 00000-0 40122-4 0 9993
2 41558 097.4078 235.4583 0012805 172.0363 188.1083 15.29945712221827
Lapan A3
1 41603U 16040E 20142.87760028 .00000124 00000-0 89084-5 0 9993
2 41603 97.3113 197.2513 0011951 299.5884 175.0763 15.19832780217104
Swayam
1 41607U 16040J 20142.61238819 .00001114 00000-0 48594-4 0 9997
2 41607 097.3192 202.6135 0011342 283.2312 076.7660 15.24173721217333
Pratham
1 41783U 16059A 20142.73165355 .00000037 00000-0 16345-4 0 9991
2 41783 098.0184 198.9395 0034431 042.3550 318.0301 14.63054865194971
AlSat 1N
1 41789U 16059G 20142.84048832 .00000024 00000-0 13526-4 0 9993
2 41789 98.0215 201.8005 0028966 30.4847 329.8020 14.64318060195135
ScatSat
1 41790U 16059H 20142.84662918 -.00000006 00000-0 92324-5 0 9997
2 41790 98.1631 183.9219 0006337 15.3042 344.8339 14.50910293193368
TY-1
1 41844U 16066D 20142.86238634 .00000695 00000-0 30797-4 0 9999
2 41844 97.4037 151.3306 0016716 79.1685 40.7460 15.24813342196212
Pegasus-1
1 41846U 16066F 20142.70451837 .00000121 00000-0 29683-4 0 9992
2 41846 098.6636 192.4722 0365916 312.9967 044.1079 14.37757303185129
CAS-2T
1 41847U 16066G 20142.76687639 .00000021 00000-0 14500-4 0 9991
2 41847 098.6561 193.0062 0364758 308.5840 048.3190 14.38063823185583
EO-88
1 42017U 17008BX 20142.73801849 .00001203 00000-0 48948-4 0 9992
2 42017 097.3611 210.6887 0007765 064.8774 295.3270 15.26430197181473
CAS-4B
1 42759U 17034B 20142.56898493 .00000022 00000-0 14804-4 0 9998
2 42759 43.0177 174.7644 0011708 228.1625 268.5724 15.09814734161900
CAS-4A
1 42761U 17034D 20142.58119012 -.00000079 00000-0 87040-5 0 9992
2 42761 43.0182 174.0165 0012197 228.4536 270.1695 15.09892420161901
UCLSat
1 42765U 17036A 20142.68797017 .00000960 00000-0 43078-4 0 9996
2 42765 097.3027 197.6459 0012954 116.9676 243.2886 15.23472243162502
NIUSat
1 42766U 17036B 20142.83686895 .00000794 00000-0 37995-4 0 9991
2 42766 097.3022 195.3353 0017164 111.6741 248.6325 15.21678282161649
LituanicaSAT 2
1 42768U 17036D 20142.67438786 .00001767 00000-0 75643-4 0 9992
2 42768 97.3083 197.5641 0016468 108.8534 251.4491 15.23978807161763
Aalto 1
1 42775U 17036L 20142.82281461 .00000629 00000-0 30633-4 0 9999
2 42775 097.3004 195.6696 0015521 110.9541 249.3358 15.21805475161625
URSA MAIOR
1 42776U 17036M 20142.81529271 .00000696 00000-0 33380-4 0 9999
2 42776 097.3016 195.9354 0015343 110.7385 249.5497 15.21984808161634
Max Valier Sat
1 42778U 17036P 20142.79173641 .00000777 00000-0 36327-4 0 9998
2 42778 097.3069 197.1622 0013957 113.4622 246.8083 15.22575360161674
Pegasus
1 42784U 17036V 20142.83921868 .00000925 00000-0 41975-4 0 9992
2 42784 097.3032 197.4932 0013484 117.4651 242.7959 15.23163471161729
NUDATSat
1 42787U 17036Y 20142.91882207 .00001486 00000-0 63310-4 0 9997
2 42787 097.3074 198.9040 0011958 108.4840 251.7696 15.24448543161655
SUCHAI 1
1 42788U 17036Z 20142.67597311 .00001107 00000-0 48899-4 0 9995
2 42788 97.3040 197.8980 0013052 116.4257 243.8321 15.23703384161808
SKCUBE
1 42789U 17036AA 20142.85066720 .00001037 00000-0 46217-4 0 9995
2 42789 097.3035 197.9289 0012933 116.1362 244.1207 15.23549905161744
VZLUSAT 1
1 42790U 17036AB 20142.84196107 .00001408 00000-0 60150-4 0 9993
2 42790 097.3059 198.8259 0012501 114.2292 246.0253 15.24435577161798
VENTA 1
1 42791U 17036AC 20142.82445044 .00000952 00000-0 42662-4 0 9990
2 42791 097.3033 197.9471 0012579 116.6009 243.6519 15.23534902161737
Robusta 1B
1 42792U 17036AD 20142.74206541 .00001050 00000-0 46512-4 0 9997
2 42792 097.3038 198.0661 0012500 116.6864 243.5654 15.23736095161757
D-SAT
1 42794U 17036AF 20142.73730698 .00000096 00000-0 13405-4 0 9997
2 42794 097.4955 176.7138 0127867 094.1853 267.3991 14.91267478158719
TechnoSat
1 42829U 17042E 20142.57472600 .00000096 00000-0 15048-4 0 9996
2 42829 97.5236 25.6121 0014767 20.5762 339.6049 14.91093383155289
QIKCOM-1
1 42983U 98067NF 20142.87606332 .00003161 00000-0 42437-4 0 9995
2 42983 051.6391 079.4577 0003268 329.0395 031.0406 15.61370327146136
AO-91
1 43017U 17073E 20142.73240864 .00000287 00000-0 27428-4 0 9990
2 43017 97.7243 56.0003 0257990 137.1816 224.9811 14.78907917135214
EcAMSat
1 43019U 98067NG 20142.83480995 .00006313 00000-0 66240-4 0 9997
2 43019 51.6414 66.5112 0002926 317.8343 42.2427 15.65856685228625
PICSAT
1 43132U 18004X 20142.72944308 .00001016 00000-0 44401-4 0 9997
2 43132 097.4481 214.2331 0010692 140.2696 219.9327 15.24355230130984
AO-92
1 43137U 18004AC 20142.82842986 .00000815 00000-0 36485-4 0 9991
2 43137 097.4467 214.1682 0010216 141.4071 218.7898 15.24076026130997
TianYi 2
1 43155U 18008A 20142.86244361 .00000913 00000-0 57384-4 0 9992
2 43155 97.4474 212.6292 0016149 237.4209 188.2524 15.11601679128904
Zhou Enlai
1 43156U 18008B 20142.83178354 .00000246 00000-0 18434-4 0 9990
2 43156 97.4522 212.4516 0013268 235.9031 261.8941 15.11136621128856
TianYi 6
1 43158U 18008D 20142.82814795 .00000208 00000-0 16341-4 0 9990
2 43158 97.4456 211.5381 0012172 234.9359 190.1975 15.10675201128806
S-Net G
1 43186U 18014G 20142.84192829 .00000146 00000-0 17841-4 0 9994
2 43186 097.6966 051.1107 0009989 321.7832 038.2680 14.96803693125715
